User: anonymous   Login
Location: Unspecified
(0.0000°N, 0.0000°E)
Time: 11:56:52
(UTC+00:00)
Language:

USA 250 - Orbit

View from above orbital plane
View from above orbital plane
View from above satellite
View from above satellite

Ground track
Ground track

The orbit data is extracted from the following two-line orbital elements,

1 39652U 14020A   17257.68024272 0.00000000  00000-0  00000-0 0    08
2 39652   2.6174 320.7059 0004076 107.3059 252.7574  1.00270000    07
Epoch (UTC): 14 September 2017 16:19:32
Eccentricity: 0.0004076
inclination: 2.6174°
perigee height: 35769 km
apogee height: 35804 km
right ascension of ascending node: 320.7059°
argument of perigee: 107.3059°
revolutions per day: 1.00270000
mean anomaly at epoch: 252.7574°
orbit number at epoch: 0

The dashed part of the orbit path shows where the satellite is in the earth's shadow,  

DLR